| time (UTC) | temp F | wind direction | speed MPH | gust MPH | rain 1hr in | rain 24hr in | rain mn in | humidity % | barometer mb |
| 20260506034147 | 53 | 183 | 3.0 | 8.0 | 0.00 | 0.98 | 0.96 | 92 | 1003.4 |
| 20260506033647 | 53 | 251 | 2.0 | 5.0 | 0.00 | 0.98 | 0.96 | 92 | 1003.3 |
| 20260506033147 | 53 | 290 | 3.0 | 6.0 | 0.00 | 0.98 | 0.96 | 92 | 1003.4 |
| 20260506032646 | 54 | 155 | 4.0 | 8.0 | 0.00 | 0.98 | 0.96 | 93 | 1003.4 |
| 20260506032146 | 54 | 200 | 3.0 | 6.0 | 0.00 | 0.98 | 0.96 | 92 | 1003.4 |
| 20260506031646 | 54 | 174 | 2.0 | 7.0 | 0.00 | 0.98 | 0.96 | 92 | 1003.5 |
| 20260506031145 | 54 | 217 | 3.0 | 6.0 | 0.00 | 0.98 | 0.96 | 92 | 1003.5 |
| 20260506030645 | 54 | 182 | 3.0 | 7.0 | 0.00 | 0.98 | 0.96 | 92 | 1003.6 |
| 20260506030145 | 54 | 78 | 3.0 | 7.0 | 0.00 | 0.98 | 0.96 | 92 | 1003.6 |
| 20260506025645 | 54 | 244 | 2.0 | 6.0 | 0.00 | 0.98 | 0.96 | 92 | 1003.6 |
| 20260506025144 | 54 | 304 | 3.0 | 6.0 | 0.00 | 0.99 | 0.96 | 92 | 1003.6 |
| 20260506024644 | 54 | 226 | 3.0 | 7.0 | 0.00 | 0.99 | 0.96 | 92 | 1003.7 |
| 20260506023643 | 54 | 213 | 2.0 | 8.0 | 0.00 | 0.99 | 0.96 | 92 | 1003.7 |
| 20260506023143 | 54 | 171 | 3.0 | 6.0 | 0.00 | 0.99 | 0.96 | 92 | 1003.7 |
| 20260506022143 | 54 | 242 | 2.0 | 8.0 | 0.00 | 0.99 | 0.96 | 92 | 1003.7 |
| 20260506021642 | 54 | 283 | 2.0 | 7.0 | 0.00 | 0.99 | 0.96 | 92 | 1003.8 |
| 20260506020642 | 54 | 215 | 3.0 | 8.0 | 0.00 | 0.99 | 0.96 | 92 | 1003.8 |
| 20260506015141 | 54 | 174 | 4.0 | 10.0 | 0.00 | 0.99 | 0.96 | 92 | 1003.7 |
| 20260506014641 | 54 | 242 | 4.0 | 9.0 | 0.00 | 0.99 | 0.96 | 93 | 1003.7 |
| 20260506013640 | 54 | 244 | 3.0 | 8.0 | 0.00 | 0.99 | 0.96 | 93 | 1003.7 |
| 20260506013140 | 54 | 202 | 4.0 | 8.0 | 0.00 | 0.99 | 0.96 | 93 | 1003.8 |
| 20260506011639 | 54 | 232 | 2.0 | 6.0 | 0.00 | 0.99 | 0.96 | 94 | 1003.7 |
| 20260506011139 | 54 | 188 | 2.0 | 5.0 | 0.00 | 0.99 | 0.96 | 94 | 1003.7 |
| 20260506010638 | 54 | 153 | 2.0 | 7.0 | 0.00 | 0.99 | 0.96 | 94 | 1003.6 |
| 20260506010138 | 54 | 202 | 3.0 | 6.0 | 0.00 | 0.99 | 0.96 | 94 | 1003.6 |
| 20260506005638 | 54 | 192 | 3.0 | 9.0 | 0.00 | 0.99 | 0.96 | 94 | 1003.6 |
| 20260506004637 | 54 | 94 | 2.0 | 5.0 | 0.00 | 0.99 | 0.96 | 94 | 1003.7 |
| 20260506003636 | 54 | 101 | 3.0 | 5.0 | 0.00 | 0.99 | 0.96 | 94 | 1003.7 |
| 20260506003136 | 54 | 162 | 4.0 | 8.0 | 0.00 | 0.99 | 0.96 | 94 | 1003.6 |
| 20260506002636 | 54 | 142 | 4.0 | 8.0 | 0.00 | 0.99 | 0.96 | 94 | 1003.7 |
| 20260506002136 | 54 | 141 | 4.0 | 9.0 | 0.00 | 0.99 | 0.96 | 95 | 1003.7 |
| 20260506001635 | 54 | 134 | 4.0 | 8.0 | 0.00 | 0.99 | 0.96 | 95 | 1003.9 |
| 20260506001135 | 53 | 194 | 3.0 | 9.0 | 0.00 | 0.99 | 0.96 | 95 | 1003.9 |
| 20260506000716 | 53 | 186 | 1.0 | 5.0 | 0.00 | 0.99 | 0.96 | 95 | 1003.9 |
| 20260506000635 | 53 | 186 | 1.0 | 5.0 | 0.00 | 0.99 | 0.96 | 95 | 1003.9 |
| 20260505235634 | 53 | 155 | 2.0 | 6.0 | 0.00 | 0.99 | 0.96 | 95 | 1004.0 |
| 20260505235134 | 53 | 139 | 1.0 | 4.0 | 0.00 | 0.99 | 0.96 | 95 | 1004.0 |
| 20260505234634 | 54 | 169 | 1.0 | 5.0 | 0.00 | 0.99 | 0.96 | 95 | 1004.0 |
| 20260505233633 | 54 | 132 | 0.0 | 2.0 | 0.00 | 0.99 | 0.96 | 95 | 1004.1 |
| 20260505233133 | 54 | 107 | 0.0 | 1.0 | 0.00 | 0.99 | 0.96 | 95 | 1004.2 |
| 20260505232632 | 54 | 203 | 0.0 | 4.0 | 0.00 | 0.99 | 0.96 | 95 | 1004.2 |
| 20260505232132 | 54 | 177 | 0.0 | 1.0 | 0.00 | 0.99 | 0.96 | 94 | 1004.3 |
| 20260505231632 | 54 | 167 | 0.0 | 1.0 | 0.00 | 0.99 | 0.96 | 95 | 1004.3 |
| 20260505231132 | 54 | 220 | 0.0 | 1.0 | 0.00 | 0.99 | 0.96 | 94 | 1004.4 |
| 20260505230631 | 54 | 148 | 1.0 | 2.0 | 0.00 | 0.99 | 0.96 | 94 | 1004.5 |
| 20260505225631 | 54 | 315 | 1.0 | 4.0 | 0.01 | 0.99 | 0.96 | 94 | 1004.5 |
| 20260505225131 | 54 | 260 | 1.0 | 2.0 | 0.01 | 0.99 | 0.96 | 95 | 1004.6 |
| 20260505224630 | 54 | 157 | 0.0 | 3.0 | 0.02 | 0.99 | 0.96 | 94 | 1004.6 |
| 20260505224130 | 54 | 174 | 0.0 | 1.0 | 0.03 | 0.99 | 0.96 | 95 | 1004.6 |
| 20260505223630 | 54 | 174 | 0.0 | 2.0 | 0.05 | 0.99 | 0.96 | 95 | 1004.6 |
| 20260505223129 | 54 | 111 | 0.0 | 2.0 | 0.07 | 0.99 | 0.96 | 94 | 1004.6 |
| 20260505222629 | 54 | 231 | 0.0 | 0.0 | 0.09 | 0.99 | 0.96 | 94 | 1004.6 |
| 20260505221628 | 54 | 175 | 0.0 | 1.0 | 0.14 | 0.99 | 0.96 | 94 | 1004.8 |
| 20260505221128 | 54 | 174 | 0.0 | 1.0 | 0.16 | 0.99 | 0.96 | 94 | 1004.8 |
| 20260505220724 | 54 | 188 | 0.0 | 1.0 | 0.19 | 0.99 | 0.96 | 94 | 1004.9 |
| 20260505220628 | 54 | 188 | 0.0 | 1.0 | 0.19 | 0.99 | 0.96 | 94 | 1004.9 |
| 20260505220128 | 54 | 188 | 0.0 | 1.0 | 0.22 | 0.99 | 0.96 | 94 | 1004.9 |
| 20260505215627 | 54 | 178 | 0.0 | 0.0 | 0.24 | 0.98 | 0.95 | 94 | 1004.9 |
| 20260505215127 | 54 | 169 | 1.0 | 3.0 | 0.28 | 0.98 | 0.95 | 94 | 1004.9 |
| 20260505214127 | 54 | 139 | 1.0 | 4.0 | 0.34 | 0.96 | 0.93 | 94 | 1005.1 |
| 20260505213626 | 54 | 138 | 0.0 | 4.0 | 0.37 | 0.94 | 0.91 | 94 | 1005.0 |
| 20260505213126 | 54 | 269 | 0.0 | 2.0 | 0.40 | 0.92 | 0.89 | 94 | 1004.9 |
| 20260505212626 | 54 | 269 | 0.0 | 2.0 | 0.40 | 0.90 | 0.87 | 93 | 1004.7 |
| 20260505212125 | 54 | 269 | 1.0 | 2.0 | 0.41 | 0.88 | 0.85 | 93 | 1004.7 |
| 20260505211625 | 54 | 304 | 1.0 | 4.0 | 0.40 | 0.85 | 0.82 | 93 | 1004.9 |
| 20260505211125 | 54 | 340 | 0.0 | 5.0 | 0.41 | 0.83 | 0.80 | 93 | 1005.0 |
| 20260505210624 | 54 | 319 | 0.0 | 1.0 | 0.41 | 0.80 | 0.77 | 93 | 1005.1 |
| 20260505210124 | 54 | 309 | 0.0 | 2.0 | 0.42 | 0.77 | 0.74 | 93 | 1005.1 |
| 20260505205624 | 54 | 324 | 0.0 | 0.0 | 0.43 | 0.74 | 0.71 | 92 | 1005.1 |
| 20260505205123 | 54 | 324 | 0.0 | 1.0 | 0.46 | 0.70 | 0.67 | 92 | 1005.1 |
| 20260505204623 | 54 | 324 | 0.0 | 1.0 | 0.49 | 0.66 | 0.63 | 92 | 1005.1 |
| 20260505204123 | 54 | 313 | 0.0 | 1.0 | 0.51 | 0.62 | 0.59 | 92 | 1005.0 |
| 20260505203623 | 54 | 330 | 0.0 | 0.0 | 0.49 | 0.57 | 0.54 | 92 | 1005.1 |
| 20260505203122 | 55 | 330 | 0.0 | 1.0 | 0.48 | 0.52 | 0.49 | 91 | 1005.2 |
| 20260505202622 | 55 | 330 | 1.0 | 3.0 | 0.48 | 0.50 | 0.47 | 91 | 1005.5 |
| 20260505201621 | 55 | 324 | 0.0 | 3.0 | 0.43 | 0.45 | 0.42 | 90 | 1005.6 |
| 20260505201121 | 55 | 129 | 0.0 | 2.0 | 0.40 | 0.42 | 0.39 | 90 | 1005.7 |
| 20260505200621 | 55 | 86 | 2.0 | 4.0 | 0.37 | 0.39 | 0.36 | 88 | 1005.8 |
| 20260505200121 | 56 | 120 | 2.0 | 8.0 | 0.33 | 0.35 | 0.32 | 87 | 1006.0 |
| 20260505195620 | 56 | 274 | 2.0 | 7.0 | 0.29 | 0.31 | 0.28 | 87 | 1005.8 |
| 20260505193619 | 60 | 136 | 2.0 | 5.0 | 0.06 | 0.08 | 0.05 | 84 | 1005.2 |
| 20260505193119 | 61 | 134 | 1.0 | 2.0 | 0.02 | 0.04 | 0.01 | 82 | 1005.2 |
| 20260505192619 | 61 | 160 | 1.0 | 5.0 | 0.00 | 0.02 | 0.02 | 80 | 1005.2 |
| 20260505192118 | 61 | 146 | 1.0 | 4.0 | 0.00 | 0.02 | 0.02 | 79 | 1005.2 |
| 20260505191618 | 61 | 141 | 0.0 | 2.0 | 0.00 | 0.02 | 0.02 | 79 | 1005.2 |
| 20260505190617 | 61 | 29 | 1.0 | 2.0 | 0.00 | 0.02 | 0.02 | 78 | 1004.4 |
| 20260505185617 | 61 | 311 | 2.0 | 5.0 | 0.00 | 0.02 | 0.02 | 77 | 1004.1 |
| 20260505185116 | 61 | 271 | 2.0 | 6.0 | 0.00 | 0.02 | 0.02 | 77 | 1004.0 |
| 20260505184116 | 62 | 246 | 2.0 | 7.0 | 0.00 | 0.02 | 0.02 | 76 | 1003.9 |
| 20260505182115 | 62 | 199 | 2.0 | 6.0 | 0.00 | 0.02 | 0.02 | 75 | 1004.4 |
| 20260505181614 | 62 | 342 | 2.0 | 6.0 | 0.00 | 0.02 | 0.02 | 75 | 1004.5 |
| 20260505180614 | 62 | 56 | 2.0 | 7.0 | 0.00 | 0.02 | 0.02 | 74 | 1004.5 |
| 20260505175613 | 62 | 78 | 1.0 | 5.0 | 0.00 | 0.02 | 0.02 | 75 | 1004.6 |
| 20260505173612 | 63 | 247 | 1.0 | 4.0 | 0.00 | 0.02 | 0.02 | 75 | 1004.7 |
| 20260505173112 | 63 | 153 | 1.0 | 7.0 | 0.00 | 0.02 | 0.02 | 75 | 1004.8 |
| 20260505172111 | 63 | 254 | 1.0 | 1.0 | 0.00 | 0.02 | 0.02 | 76 | 1004.9 |
| 20260505170611 | 64 | 154 | 1.0 | 2.0 | 0.00 | 0.02 | 0.02 | 74 | 1005.1 |
| 20260505170110 | 64 | 253 | 1.0 | 6.0 | 0.00 | 0.02 | 0.02 | 74 | 1005.1 |
| 20260505165110 | 64 | 184 | 1.0 | 4.0 | 0.00 | 0.02 | 0.02 | 74 | 1005.1 |
| 20260505164609 | 64 | 316 | 1.0 | 2.0 | 0.00 | 0.02 | 0.02 | 74 | 1005.0 |
| 20260505163609 | 65 | 226 | 1.0 | 3.0 | 0.00 | 0.02 | 0.02 | 72 | 1005.2 |
| 20260505163109 | 65 | 286 | 2.0 | 5.0 | 0.00 | 0.02 | 0.02 | 72 | 1005.2 |
| 20260505162608 | 65 | 55 | 2.0 | 5.0 | 0.00 | 0.02 | 0.02 | 71 | 1005.2 |
| 20260505162108 | 65 | 206 | 2.0 | 6.0 | 0.00 | 0.02 | 0.02 | 71 | 1005.3 |
| 20260505161608 | 66 | 50 | 2.0 | 6.0 | 0.00 | 0.02 | 0.02 | 70 | 1005.4 |
| 20260505160607 | 66 | 46 | 2.0 | 7.0 | 0.00 | 0.02 | 0.02 | 68 | 1005.4 |
| 20260505151604 | 69 | 351 | 2.0 | 6.0 | 0.00 | 0.02 | 0.02 | 65 | 1005.6 |
| 20260505151104 | 69 | 269 | 2.0 | 4.0 | 0.00 | 0.02 | 0.02 | 67 | 1005.7 |
| 20260505150604 | 69 | 35 | 2.0 | 7.0 | 0.00 | 0.02 | 0.02 | 67 | 1005.7 |
| 20260505123555 | 71 | 275 | 1.0 | 3.0 | 0.00 | 0.02 | 0.02 | 65 | 1007.1 |
| 20260505122554 | 71 | 275 | 1.0 | 4.0 | 0.00 | 0.02 | 0.02 | 64 | 1007.2 |
| 20260505121053 | 70 | 26 | 1.0 | 5.0 | 0.00 | 0.02 | 0.02 | 64 | 1007.2 |
| 20260505115553 | 69 | 245 | 2.0 | 6.0 | 0.00 | 0.02 | 0.02 | 69 | 1007.3 |
| 20260505114552 | 69 | 5 | 1.0 | 7.0 | 0.00 | 0.02 | 0.02 | 69 | 1007.4 |
| 20260505113551 | 68 | 318 | 1.0 | 4.0 | 0.00 | 0.02 | 0.02 | 74 | 1007.4 |
| 20260505111050 | 66 | 171 | 1.0 | 5.0 | 0.00 | 0.02 | 0.02 | 77 | 1007.4 |
| 20260505101547 | 60 | 13 | 0.0 | 2.0 | 0.00 | 0.02 | 0.02 | 89 | 1008.3 |
| 20260505100546 | 60 | 284 | 0.0 | 2.0 | 0.00 | 0.02 | 0.02 | 89 | 1008.1 |
| 20260505100046 | 60 | 288 | 0.0 | 2.0 | 0.00 | 0.02 | 0.02 | 90 | 1008.3 |
| 20260505095045 | 59 | 249 | 0.0 | 1.0 | 0.00 | 0.02 | 0.02 | 90 | 1008.2 |
| 20260505094545 | 59 | 273 | 0.0 | 2.0 | 0.00 | 0.02 | 0.02 | 91 | 1008.3 |
| 20260505094045 | 59 | 286 | 1.0 | 3.0 | 0.00 | 0.02 | 0.02 | 89 | 1008.3 |
| 20260505093544 | 59 | 257 | 1.0 | 2.0 | 0.00 | 0.02 | 0.02 | 90 | 1008.4 |
| 20260505093044 | 59 | 207 | 1.0 | 4.0 | 0.00 | 0.02 | 0.02 | 90 | 1008.4 |
| 20260505092544 | 59 | 334 | 0.0 | 2.0 | 0.00 | 0.02 | 0.02 | 89 | 1008.4 |
| 20260505092044 | 59 | 270 | 1.0 | 1.0 | 0.00 | 0.02 | 0.02 | 89 | 1008.5 |
| 20260505091043 | 59 | 232 | 0.0 | 5.0 | 0.00 | 0.02 | 0.02 | 90 | 1008.5 |
| 20260505090042 | 59 | 31 | 0.0 | 1.0 | 0.00 | 0.02 | 0.02 | 89 | 1008.5 |
| 20260505084541 | 58 | 293 | 0.0 | 1.0 | 0.00 | 0.02 | 0.02 | 89 | 1008.5 |
| 20260505083541 | 58 | 292 | 0.0 | 2.0 | 0.00 | 0.02 | 0.02 | 89 | 1008.5 |
| 20260505083041 | 58 | 236 | 0.0 | 0.0 | 0.00 | 0.02 | 0.02 | 91 | 1008.5 |
| 20260505081039 | 58 | 299 | 0.0 | 2.0 | 0.00 | 0.02 | 0.02 | 93 | 1008.5 |
| 20260505080039 | 58 | 273 | 0.0 | 2.0 | 0.00 | 0.02 | 0.02 | 93 | 1008.4 |
| 20260505075539 | 57 | 344 | 0.0 | 2.0 | 0.00 | 0.02 | 0.02 | 93 | 1008.4 |
| 20260505074538 | 57 | 342 | 0.0 | 2.0 | 0.00 | 0.02 | 0.02 | 93 | 1008.4 |
| 20260505074038 | 57 | 287 | 0.0 | 1.0 | 0.00 | 0.02 | 0.02 | 93 | 1008.5 |
| 20260505073037 | 57 | 300 | 0.0 | 1.0 | 0.00 | 0.02 | 0.02 | 93 | 1008.5 |
| 20260505072037 | 57 | 298 | 0.0 | 1.0 | 0.00 | 0.02 | 0.02 | 93 | 1008.6 |
| 20260505071536 | 57 | 298 | 0.0 | 2.0 | 0.00 | 0.02 | 0.02 | 93 | 1008.5 |
| 20260505071036 | 57 | 0 | 0.0 | 1.0 | 0.00 | 0.02 | 0.02 | 93 | 1008.6 |
| 20260505070035 | 57 | 71 | 0.0 | 1.0 | 0.00 | 0.02 | 0.02 | 93 | 1008.5 |
| 20260505065535 | 57 | 86 | 0.0 | 1.0 | 0.00 | 0.02 | 0.02 | 93 | 1008.5 |
| 20260505065035 | 57 | 350 | 0.0 | 0.0 | 0.00 | 0.02 | 0.02 | 94 | 1008.4 |
| 20260505064535 | 57 | 350 | 0.0 | 1.0 | 0.00 | 0.02 | 0.02 | 94 | 1008.4 |
| 20260505064034 | 56 | 350 | 0.0 | 1.0 | 0.00 | 0.02 | 0.02 | 94 | 1008.3 |
| 20260505063534 | 56 | 14 | 0.0 | 0.0 | 0.00 | 0.02 | 0.02 | 94 | 1008.1 |
| 20260505063034 | 56 | 14 | 0.0 | 0.0 | 0.00 | 0.02 | 0.02 | 94 | 1008.1 |
| 20260505061032 | 56 | 14 | 0.0 | 0.0 | 0.00 | 0.02 | 0.02 | 93 | 1008.3 |
| 20260505060532 | 56 | 14 | 0.0 | 1.0 | 0.00 | 0.02 | 0.02 | 93 | 1008.3 |
| 20260505060032 | 56 | 14 | 0.0 | 1.0 | 0.00 | 0.02 | 0.02 | 93 | 1008.4 |
| 20260505055532 | 56 | 327 | 0.0 | 0.0 | 0.00 | 0.02 | 0.02 | 93 | 1008.4 |
| 20260505054031 | 56 | 344 | 0.0 | 1.0 | 0.01 | 0.02 | 0.02 | 93 | 1008.6 |
| 20260505053531 | 56 | 341 | 0.0 | 1.0 | 0.01 | 0.02 | 0.02 | 93 | 1008.7 |
| 20260505052530 | 56 | 286 | 0.0 | 1.0 | 0.01 | 0.02 | 0.02 | 93 | 1008.9 |
| 20260505052030 | 56 | 286 | 0.0 | 0.0 | 0.01 | 0.02 | 0.02 | 93 | 1009.1 |
| 20260505051529 | 56 | 286 | 0.0 | 2.0 | 0.01 | 0.02 | 0.02 | 93 | 1009.2 |
| 20260505050529 | 55 | 225 | 0.0 | 2.0 | 0.01 | 0.02 | 0.02 | 93 | 1009.2 |
| 20260505040525 | 55 | 269 | 0.0 | 0.0 | 0.01 | 0.01 | 0.01 | 92 | 1009.2 |
| 20260505035525 | 56 | 306 | 0.0 | 2.0 | 0.01 | 0.01 | 0.01 | 91 | 1009.2 |
| 20260505035025 | 56 | 266 | 0.0 | 1.0 | 0.01 | 0.01 | 0.01 | 91 | 1009.4 |